AAL1549 KLAX-KSAN

Flight info

Callsign AAL1549
Flight time 0h 34m
Altitude 13000
Route LAXX1 MZB
Aircraft A20N/M-SDE2E3FGHIRWXY/LB1

Departure

Time 2026-04-20 22:10
Airport Los Angeles International Airport (KLAX)

Arrival

Time 2026-04-20 22:44
Airport San Diego International Airport (KSAN)
Time Latitude Longitude Altitude Speed Heading
2026-04-20 21:50 33.94709 -118.40332 125 ft 0 kts 234°
2026-04-20 21:54 33.94724 -118.40307 122 ft 5 kts 234°
2026-04-20 21:55 33.94754 -118.40257 124 ft 4 kts 242°
2026-04-20 21:55 33.94755 -118.40255 120 ft 0 kts 251°
2026-04-20 22:02 33.94755 -118.40256 134 ft 0 kts 253°
2026-04-20 22:02 33.94758 -118.40259 134 ft 1 kts 298°
2026-04-20 22:02 33.94784 -118.40266 123 ft 9 kts 347°
2026-04-20 22:02 33.94881 -118.40287 123 ft 15 kts 19°
2026-04-20 22:03 33.94894 -118.40265 122 ft 9 kts 69°
2026-04-20 22:03 33.94921 -118.40124 123 ft 21 kts 81°
2026-04-20 22:03 33.94938 -118.39950 122 ft 14 kts 67°
2026-04-20 22:03 33.94943 -118.39942 124 ft 0 kts 53°
2026-04-20 22:06 33.94944 -118.39941 123 ft 1 kts 53°
2026-04-20 22:06 33.94974 -118.39915 122 ft 10 kts 16°
2026-04-20 22:06 33.95042 -118.39961 123 ft 12 kts 274°
2026-04-20 22:06 33.95037 -118.40004 124 ft 0 kts 263°
2026-04-20 22:09 33.95025 -118.40118 125 ft 44 kts 263°
2026-04-20 22:09 33.94979 -118.40744 122 ft 104 kts 258°
2026-04-20 22:10 33.94851 -118.41804 159 ft 146 kts 262°
2026-04-20 22:10 33.94721 -118.43022 680 ft 149 kts 262°
2026-04-20 22:10 33.94598 -118.44310 1264 ft 159 kts 264°
2026-04-20 22:10 33.94554 -118.45658 1931 ft 164 kts 265°
2026-04-20 22:11 33.94448 -118.47110 2281 ft 185 kts 255°
2026-04-20 22:11 33.93739 -118.48480 2623 ft 207 kts 218°
2026-04-20 22:11 33.92477 -118.49494 3010 ft 231 kts 211°
2026-04-20 22:11 33.91051 -118.50581 3533 ft 253 kts 211°
2026-04-20 22:12 33.89548 -118.51733 4274 ft 262 kts 211°
2026-04-20 22:12 33.88010 -118.52918 5282 ft 263 kts 211°
2026-04-20 22:12 33.86451 -118.54130 6274 ft 264 kts 211°
2026-04-20 22:12 33.84895 -118.55344 7151 ft 268 kts 211°
2026-04-20 22:13 33.83348 -118.56547 8048 ft 270 kts 211°
2026-04-20 22:13 33.81756 -118.57783 8928 ft 274 kts 211°
2026-04-20 22:13 33.80141 -118.59035 9824 ft 277 kts 211°
2026-04-20 22:13 33.78469 -118.60328 10171 ft 300 kts 211°
2026-04-20 22:14 33.76627 -118.61745 10297 ft 324 kts 211°
2026-04-20 22:14 33.74717 -118.63210 10406 ft 326 kts 211°
2026-04-20 22:14 33.72823 -118.64660 10511 ft 326 kts 211°
2026-04-20 22:14 33.70864 -118.66050 10608 ft 326 kts 205°
2026-04-20 22:15 33.68725 -118.66952 10721 ft 326 kts 188°
2026-04-20 22:15 33.66468 -118.66830 10830 ft 328 kts 166°
2026-04-20 22:15 33.64404 -118.65652 10939 ft 333 kts 144°
2026-04-20 22:15 33.62844 -118.63586 10999 ft 339 kts 123°
2026-04-20 22:16 33.62028 -118.60927 10999 ft 344 kts 103°
2026-04-20 22:16 33.61644 -118.58081 11000 ft 345 kts 101°
2026-04-20 22:16 33.61276 -118.55234 11002 ft 345 kts 101°
2026-04-20 22:16 33.60915 -118.52426 11003 ft 345 kts 101°
2026-04-20 22:17 33.60549 -118.49583 11004 ft 345 kts 101°
2026-04-20 22:17 33.60182 -118.46738 11008 ft 345 kts 101°
2026-04-20 22:17 33.59815 -118.43888 11017 ft 345 kts 101°
2026-04-20 22:17 33.59450 -118.41050 11007 ft 345 kts 101°
2026-04-20 22:18 33.59085 -118.38204 11006 ft 344 kts 101°
2026-04-20 22:18 33.58719 -118.35362 11009 ft 345 kts 101°
2026-04-20 22:18 33.58352 -118.32517 11004 ft 344 kts 101°
2026-04-20 22:18 33.57986 -118.29683 11003 ft 344 kts 101°
2026-04-20 22:19 33.57450 -118.26908 11001 ft 340 kts 115°
2026-04-20 22:19 33.56204 -118.24536 11012 ft 337 kts 131°
2026-04-20 22:19 33.54712 -118.22411 11004 ft 336 kts 133°
2026-04-20 22:19 33.53135 -118.20305 10998 ft 335 kts 134°
2026-04-20 22:20 33.51582 -118.18265 11005 ft 336 kts 134°
2026-04-20 22:20 33.50002 -118.16195 10995 ft 336 kts 134°
2026-04-20 22:20 33.48430 -118.14129 11004 ft 335 kts 134°
2026-04-20 22:20 33.46860 -118.12060 11004 ft 336 kts 134°
2026-04-20 22:21 33.45285 -118.09984 11001 ft 336 kts 134°
2026-04-20 22:21 33.43713 -118.07910 11007 ft 337 kts 134°
2026-04-20 22:21 33.42128 -118.05820 11384 ft 340 kts 134°
2026-04-20 22:21 33.40534 -118.03718 12056 ft 344 kts 134°
2026-04-20 22:22 33.38922 -118.01595 12205 ft 342 kts 134°
2026-04-20 22:22 33.37340 -117.99512 12343 ft 343 kts 134°
2026-04-20 22:22 33.35733 -117.97398 12477 ft 344 kts 135°
2026-04-20 22:22 33.34119 -117.95276 12603 ft 345 kts 134°
2026-04-20 22:23 33.32502 -117.93152 12727 ft 346 kts 135°
2026-04-20 22:23 33.30879 -117.91020 12844 ft 346 kts 135°
2026-04-20 22:23 33.29255 -117.88889 12957 ft 347 kts 135°
2026-04-20 22:23 33.27625 -117.86751 12999 ft 348 kts 135°
2026-04-20 22:24 33.25998 -117.84619 12999 ft 347 kts 135°
2026-04-20 22:24 33.24367 -117.82483 12998 ft 347 kts 135°
2026-04-20 22:24 33.22738 -117.80349 12998 ft 347 kts 135°
2026-04-20 22:24 33.21109 -117.78217 12996 ft 348 kts 135°
2026-04-20 22:25 33.19497 -117.76110 12998 ft 348 kts 135°
2026-04-20 22:25 33.17865 -117.73976 13001 ft 347 kts 135°
2026-04-20 22:25 33.16234 -117.71846 13001 ft 348 kts 135°
2026-04-20 22:25 33.14603 -117.69717 13001 ft 348 kts 134°
2026-04-20 22:26 33.12969 -117.67585 13001 ft 348 kts 134°
2026-04-20 22:26 33.11331 -117.65450 13003 ft 348 kts 134°
2026-04-20 22:26 33.09698 -117.63322 13002 ft 348 kts 134°
2026-04-20 22:27 33.06426 -117.59062 13007 ft 348 kts 134°
2026-04-20 22:27 33.04787 -117.56929 13005 ft 348 kts 134°
2026-04-20 22:27 33.03147 -117.54798 13006 ft 348 kts 134°
2026-04-20 22:27 33.01511 -117.52672 13010 ft 348 kts 134°
2026-04-20 22:28 32.99869 -117.50540 13011 ft 348 kts 134°
2026-04-20 22:28 32.98229 -117.48413 12992 ft 348 kts 134°
2026-04-20 22:28 32.96846 -117.46618 12811 ft 346 kts 134°
2026-04-20 22:28 32.95217 -117.44506 12417 ft 344 kts 134°
2026-04-20 22:29 32.93602 -117.42415 11932 ft 342 kts 134°
2026-04-20 22:29 32.91999 -117.40340 11451 ft 339 kts 134°
2026-04-20 22:29 32.90411 -117.38272 10958 ft 337 kts 131°
2026-04-20 22:29 32.89235 -117.35869 10480 ft 338 kts 113°
2026-04-20 22:30 32.88423 -117.33291 10296 ft 326 kts 112°
2026-04-20 22:30 32.87656 -117.30814 10178 ft 312 kts 112°
2026-04-20 22:30 32.86933 -117.28467 10072 ft 299 kts 112°
2026-04-20 22:30 32.86233 -117.26182 9902 ft 289 kts 112°
2026-04-20 22:31 32.85550 -117.23943 9561 ft 286 kts 112°
2026-04-20 22:31 32.84872 -117.21721 9180 ft 284 kts 112°
2026-04-20 22:31 32.84202 -117.19519 8791 ft 282 kts 112°
2026-04-20 22:31 32.83542 -117.17331 8421 ft 280 kts 112°
2026-04-20 22:32 32.82886 -117.15157 8068 ft 278 kts 112°
2026-04-20 22:32 32.82234 -117.12994 7713 ft 277 kts 112°
2026-04-20 22:32 32.81594 -117.10851 7379 ft 274 kts 112°
2026-04-20 22:32 32.80974 -117.08760 7277 ft 262 kts 111°
2026-04-20 22:33 32.80419 -117.06776 7166 ft 249 kts 111°
2026-04-20 22:33 32.79892 -117.04868 6913 ft 239 kts 111°
2026-04-20 22:33 32.79379 -117.03004 6567 ft 233 kts 111°
2026-04-20 22:33 32.78887 -117.01206 6226 ft 226 kts 111°
2026-04-20 22:34 32.78398 -116.99434 5754 ft 226 kts 111°
2026-04-20 22:34 32.78072 -116.98255 5451 ft 226 kts 111°
2026-04-20 22:34 32.77586 -116.96504 5169 ft 218 kts 111°
2026-04-20 22:34 32.77131 -116.94853 5006 ft 202 kts 111°
2026-04-20 22:35 32.76675 -116.93319 4603 ft 196 kts 122°
2026-04-20 22:35 32.75700 -116.92211 4086 ft 197 kts 155°
2026-04-20 22:35 32.74394 -116.91904 3835 ft 187 kts 186°
2026-04-20 22:35 32.73197 -116.92539 3727 ft 195 kts 217°
2026-04-20 22:36 32.72164 -116.93514 3620 ft 184 kts 219°
2026-04-20 22:36 32.71214 -116.94439 3573 ft 166 kts 219°
2026-04-20 22:36 32.70378 -116.95245 3576 ft 144 kts 218°
2026-04-20 22:36 32.69607 -116.95975 3606 ft 141 kts 217°
2026-04-20 22:37 32.68844 -116.96688 3483 ft 137 kts 218°
2026-04-20 22:37 32.68339 -116.97627 3153 ft 142 kts 262°
2026-04-20 22:37 32.68438 -116.98782 2913 ft 141 kts 282°
2026-04-20 22:37 32.68735 -116.99883 2705 ft 138 kts 286°
2026-04-20 22:38 32.68869 -117.00404 2658 ft 137 kts 284°
2026-04-20 22:40 32.68969 -117.00819 2699 ft 139 kts 284°
2026-04-20 22:40 32.69244 -117.01958 2698 ft 144 kts 284°
2026-04-20 22:40 32.69517 -117.03078 2696 ft 141 kts 284°
2026-04-20 22:40 32.69791 -117.04213 2629 ft 144 kts 284°
2026-04-20 22:41 32.70067 -117.05352 2426 ft 142 kts 284°
2026-04-20 22:41 32.70336 -117.06465 2197 ft 138 kts 284°
2026-04-20 22:41 32.70596 -117.07550 1988 ft 134 kts 284°
2026-04-20 22:41 32.70874 -117.08599 1877 ft 134 kts 285°
2026-04-20 22:42 32.71126 -117.09669 1707 ft 134 kts 283°
2026-04-20 22:42 32.71366 -117.10730 1483 ft 134 kts 283°
2026-04-20 22:42 32.71606 -117.11786 1294 ft 131 kts 283°
2026-04-20 22:42 32.71853 -117.12824 1095 ft 132 kts 284°
2026-04-20 22:43 32.72107 -117.13875 854 ft 131 kts 284°
2026-04-20 22:43 32.72367 -117.14907 621 ft 131 kts 285°
2026-04-20 22:43 32.72619 -117.15939 392 ft 127 kts 285°
2026-04-20 22:43 32.72864 -117.16942 239 ft 128 kts 287°
2026-04-20 22:44 32.73106 -117.17935 88 ft 126 kts 286°
2026-04-20 22:44 32.73327 -117.18849 24 ft 70 kts 286°
2026-04-20 22:44 32.73371 -117.19033 26 ft 12 kts 286°
2026-04-20 22:44 32.73340 -117.19159 24 ft 19 kts 219°
2026-04-20 22:45 32.73334 -117.19305 24 ft 19 kts 285°
2026-04-20 22:45 32.73308 -117.19430 30 ft 16 kts 213°
2026-04-20 22:45 32.73305 -117.19506 30 ft 8 kts 281°
2026-04-20 22:45 32.73334 -117.19571 28 ft 10 kts 301°
2026-04-20 22:46 32.73343 -117.19661 25 ft 13 kts 258°
2026-04-20 22:46 32.73334 -117.19749 24 ft 8 kts 284°
2026-04-20 22:46 32.73337 -117.19770 24 ft 0 kts 280°